Time,TemperatureF,DewpointF,PressureIn,WindDirection,WindDirectionDegrees,WindSpeedMPH,WindSpeedGustMPH,Humidity,HourlyPrecipIn,Conditions,Clouds,dailyrainin,SolarRadiationWatts/m^2,SoftwareType,DateUTC
2013-01-21 00:01:00,25.6,16.8,30.12,WNW,288,0.0,0.0,69,0.00,,,0.00,0,Wunderground v.1.15,2013-01-21 05:01:00,
2013-01-21 00:03:00,25.6,16.8,30.12,WNW,288,0.0,1.0,69,0.00,,,0.00,0,Wunderground v.1.15,2013-01-21 05:03:00,
2013-01-21 00:05:00,25.6,16.8,30.12,WNW,288,0.0,1.0,69,0.00,,,0.00,0,Wunderground v.1.15,2013-01-21 05:05:00,
2013-01-21 00:07:00,25.6,16.8,30.12,WNW,288,0.0,1.0,69,0.00,,,0.00,0,Wunderground v.1.15,2013-01-21 05:07:00,
2013-01-21 00:12:00,25.5,16.7,30.12,West,279,0.0,2.0,69,0.00,,,0.00,0,Wunderground v.1.15,2013-01-21 05:12:00,
2013-01-21 00:18:00,25.5,16.4,30.11,WNW,286,1.0,2.0,68,0.00,,,0.00,0,Wunderground v.1.15,2013-01-21 05:18:00,
2013-01-21 00:24:00,25.4,16.6,30.11,WNW,286,0.0,1.0,69,0.00,,,0.00,0,Wunderground v.1.15,2013-01-21 05:24:00,
2013-01-21 00:30:00,25.4,16.6,30.11,WNW,286,0.0,1.0,69,0.00,,,0.00,0,Wunderground v.1.15,2013-01-21 05:30:00,
2013-01-21 00:36:00,25.4,16.6,30.11,SSW,213,0.0,5.0,69,0.00,,,0.00,0,Wunderground v.1.15,2013-01-21 05:36:00,
2013-01-21 00:42:00,25.3,16.5,30.11,SW,216,0.0,0.0,69,0.00,,,0.00,0,Wunderground v.1.15,2013-01-21 05:42:00,
2013-01-21 00:48:00,25.3,16.2,30.10,SW,236,0.0,0.0,68,0.00,,,0.00,0,Wunderground v.1.15,2013-01-21 05:48:00,
2013-01-21 00:54:00,25.3,16.5,30.10,WSW,254,0.0,0.0,69,0.00,,,0.00,0,Wunderground v.1.15,2013-01-21 05:54:00,
2013-01-21 01:00:00,25.3,16.5,30.10,WNW,301,0.0,0.0,69,0.00,,,0.00,0,Wunderground v.1.15,2013-01-21 06:00:00,
2013-01-21 01:05:00,25.3,16.5,30.10,West,274,0.0,0.0,69,0.00,,,0.00,0,Wunderground v.1.15,2013-01-21 06:05:00,
2013-01-21 01:12:00,25.3,16.5,30.10,West,274,0.0,0.0,69,0.00,,,0.00,0,Wunderground v.1.15,2013-01-21 06:12:00,
2013-01-21 01:17:00,25.2,16.5,30.09,West,274,0.0,0.0,69,0.00,,,0.00,0,Wunderground v.1.15,2013-01-21 06:17:00,
2013-01-21 01:22:00,25.2,16.5,30.10,West,274,0.0,0.0,69,0.00,,,0.00,0,Wunderground v.1.15,2013-01-21 06:22:00,
2013-01-21 01:27:00,25.1,16.7,30.09,West,274,0.0,0.0,70,0.00,,,0.00,0,Wunderground v.1.15,2013-01-21 06:27:00,
2013-01-21 01:32:00,25.1,16.7,30.10,West,274,0.0,0.0,70,0.00,,,0.00,0,Wunderground v.1.15,2013-01-21 06:32:00,
2013-01-21 01:37:00,25.0,16.6,30.09,West,274,0.0,0.0,70,0.00,,,0.00,0,Wunderground v.1.15,2013-01-21 06:37:00,
2013-01-21 01:43:00,25.0,16.3,30.10,West,274,0.0,0.0,69,0.00,,,0.00,0,Wunderground v.1.15,2013-01-21 06:43:00,
2013-01-21 01:48:00,25.0,16.6,30.10,West,274,0.0,0.0,70,0.00,,,0.00,0,Wunderground v.1.15,2013-01-21 06:48:00,
2013-01-21 01:54:00,25.0,16.9,30.11,West,274,0.0,0.0,71,0.00,,,0.00,0,Wunderground v.1.15,2013-01-21 06:54:00,
2013-01-21 01:59:00,25.0,16.6,30.11,West,274,0.0,0.0,70,0.00,,,0.00,0,Wunderground v.1.15,2013-01-21 06:59:00,
2013-01-21 02:04:00,25.1,16.7,30.10,West,274,0.0,0.0,70,0.00,,,0.00,0,Wunderground v.1.15,2013-01-21 07:04:00,
2013-01-21 02:10:00,25.1,16.7,30.10,West,274,0.0,0.0,70,0.00,,,0.00,0,Wunderground v.1.15,2013-01-21 07:10:00,
2013-01-21 02:15:00,25.1,17.0,30.10,West,274,0.0,1.0,71,0.00,,,0.00,0,Wunderground v.1.15,2013-01-21 07:15:00,
2013-01-21 02:20:00,25.2,16.8,30.11,NW,324,0.0,2.0,70,0.00,,,0.00,0,Wunderground v.1.15,2013-01-21 07:20:00,
2013-01-21 02:26:00,25.2,16.8,30.10,West,277,1.0,4.0,70,0.00,,,0.00,0,Wunderground v.1.15,2013-01-21 07:26:00,
2013-01-21 02:31:00,25.2,17.1,30.10,West,277,1.0,1.0,71,0.00,,,0.00,0,Wunderground v.1.15,2013-01-21 07:31:00,
2013-01-21 02:37:00,25.1,17.0,30.10,West,277,0.0,1.0,71,0.00,,,0.00,0,Wunderground v.1.15,2013-01-21 07:37:00,
2013-01-21 02:43:00,25.1,17.0,30.10,NNW,343,0.0,0.0,71,0.00,,,0.00,0,Wunderground v.1.15,2013-01-21 07:43:00,
2013-01-21 02:49:00,25.0,16.9,30.10,North,360,1.0,4.0,71,0.00,,,0.00,0,Wunderground v.1.15,2013-01-21 07:49:00,
2013-01-21 02:54:00,24.9,17.1,30.10,NW,323,3.0,5.0,72,0.00,,,0.00,0,Wunderground v.1.15,2013-01-21 07:54:00,
2013-01-21 03:00:00,24.8,17.1,30.10,NNW,338,1.0,1.0,72,0.00,,,0.00,0,Wunderground v.1.15,2013-01-21 08:00:00,
2013-01-21 03:07:00,24.8,17.1,30.09,North,351,1.0,2.0,72,0.00,,,0.00,0,Wunderground v.1.15,2013-01-21 08:07:00,
2013-01-21 03:12:00,24.7,17.3,30.09,North,351,1.0,3.0,73,0.00,,,0.00,0,Wunderground v.1.15,2013-01-21 08:12:00,
2013-01-21 03:17:00,24.6,17.5,30.09,North,349,1.0,3.0,74,0.00,,,0.00,0,Wunderground v.1.15,2013-01-21 08:17:00,
2013-01-21 03:22:00,24.6,17.8,30.09,North,349,0.0,0.0,75,0.00,,,0.00,0,Wunderground v.1.15,2013-01-21 08:22:00,
2013-01-21 03:27:00,24.6,17.8,30.10,West,273,0.0,1.0,75,0.00,,,0.00,0,Wunderground v.1.15,2013-01-21 08:27:00,
2013-01-21 03:33:00,24.5,18.0,30.09,NW,309,0.0,1.0,76,0.00,,,0.00,0,Wunderground v.1.15,2013-01-21 08:33:00,
2013-01-21 03:39:00,24.4,18.2,30.09,NNW,327,0.0,4.0,77,0.00,,,0.00,0,Wunderground v.1.15,2013-01-21 08:39:00,
2013-01-21 03:44:00,24.3,18.1,30.09,NNW,327,1.0,1.0,77,0.00,,,0.00,0,Wunderground v.1.15,2013-01-21 08:44:00,
2013-01-21 03:50:00,24.2,18.3,30.08,NNW,327,0.0,0.0,78,0.00,,,0.00,0,Wunderground v.1.15,2013-01-21 08:50:00,
2013-01-21 03:55:00,24.1,18.2,30.08,NNW,327,0.0,2.0,78,0.00,,,0.00,0,Wunderground v.1.15,2013-01-21 08:55:00,
2013-01-21 04:00:00,24.1,18.2,30.08,NNW,327,0.0,0.0,78,0.00,,,0.00,0,Wunderground v.1.15,2013-01-21 09:00:00,
2013-01-21 04:06:00,24.0,18.4,30.09,NNW,327,0.0,0.0,79,0.00,,,0.00,0,Wunderground v.1.15,2013-01-21 09:06:00,
2013-01-21 04:11:00,24.0,18.4,30.09,NNW,327,0.0,0.0,79,0.00,,,0.00,0,Wunderground v.1.15,2013-01-21 09:11:00,
2013-01-21 04:17:00,24.0,18.4,30.08,NNW,327,0.0,0.0,79,0.00,,,0.00,0,Wunderground v.1.15,2013-01-21 09:17:00,
2013-01-21 04:23:00,23.9,18.6,30.08,NNW,327,0.0,0.0,80,0.00,,,0.00,0,Wunderground v.1.15,2013-01-21 09:23:00,
2013-01-21 04:28:00,23.9,18.3,30.08,NNW,327,0.0,0.0,79,0.00,,,0.00,0,Wunderground v.1.15,2013-01-21 09:28:00,
2013-01-21 04:33:00,23.9,18.6,30.07,NNW,327,0.0,0.0,80,0.00,,,0.00,0,Wunderground v.1.15,2013-01-21 09:33:00,
2013-01-21 04:39:00,23.9,18.6,30.07,NNW,327,0.0,0.0,80,0.00,,,0.00,0,Wunderground v.1.15,2013-01-21 09:39:00,
2013-01-21 04:44:00,23.9,18.6,30.07,NNW,327,0.0,0.0,80,0.00,,,0.00,0,Wunderground v.1.15,2013-01-21 09:44:00,
2013-01-21 04:49:00,23.9,18.6,30.07,NNW,327,0.0,0.0,80,0.00,,,0.00,0,Wunderground v.1.15,2013-01-21 09:49:00,
2013-01-21 04:55:00,23.9,18.6,30.06,NNW,327,0.0,0.0,80,0.00,,,0.00,0,Wunderground v.1.15,2013-01-21 09:55:00,
2013-01-21 05:00:00,23.9,18.6,30.06,NNW,327,0.0,0.0,80,0.00,,,0.00,0,Wunderground v.1.15,2013-01-21 10:00:00,
2013-01-21 05:06:00,23.9,18.6,30.07,NNW,327,0.0,0.0,80,0.00,,,0.00,0,Wunderground v.1.15,2013-01-21 10:06:00,
2013-01-21 05:11:00,23.9,18.6,30.07,NNW,327,0.0,0.0,80,0.00,,,0.00,0,Wunderground v.1.15,2013-01-21 10:11:00,
2013-01-21 05:17:00,23.9,18.6,30.06,NNW,327,0.0,0.0,80,0.00,,,0.00,0,Wunderground v.1.15,2013-01-21 10:17:00,
2013-01-21 05:22:00,23.9,18.6,30.06,NNW,327,0.0,0.0,80,0.00,,,0.00,0,Wunderground v.1.15,2013-01-21 10:22:00,
2013-01-21 05:28:00,23.9,18.6,30.06,NNW,327,0.0,0.0,80,0.00,,,0.00,0,Wunderground v.1.15,2013-01-21 10:28:00,
2013-01-21 05:34:00,23.9,18.6,30.06,NNW,327,0.0,0.0,80,0.00,,,0.00,0,Wunderground v.1.15,2013-01-21 10:34:00,
2013-01-21 05:40:00,23.9,18.6,30.06,NNW,327,0.0,0.0,80,0.00,,,0.00,0,Wunderground v.1.15,2013-01-21 10:40:00,
2013-01-21 05:45:00,23.9,18.6,30.06,NNW,327,0.0,0.0,80,0.00,,,0.00,0,Wunderground v.1.15,2013-01-21 10:45:00,
2013-01-21 05:50:00,23.9,18.6,30.05,NNW,327,0.0,0.0,80,0.00,,,0.00,0,Wunderground v.1.15,2013-01-21 10:50:00,
2013-01-21 05:56:00,23.9,18.6,30.05,NNW,327,0.0,0.0,80,0.00,,,0.00,0,Wunderground v.1.15,2013-01-21 10:56:00,
2013-01-21 06:01:00,24.0,18.7,30.05,NNW,327,0.0,0.0,80,0.00,,,0.00,0,Wunderground v.1.15,2013-01-21 11:01:00,
2013-01-21 06:06:00,24.0,18.7,30.06,NNW,327,0.0,0.0,80,0.00,,,0.00,0,Wunderground v.1.15,2013-01-21 11:06:00,
2013-01-21 06:11:00,24.0,18.7,30.06,NNW,327,0.0,0.0,80,0.00,,,0.00,0,Wunderground v.1.15,2013-01-21 11:11:00,
2013-01-21 06:16:00,24.0,18.7,30.06,NNW,327,0.0,0.0,80,0.00,,,0.00,0,Wunderground v.1.15,2013-01-21 11:16:00,
2013-01-21 06:21:00,24.0,18.7,30.06,NNW,327,0.0,0.0,80,0.00,,,0.00,0,Wunderground v.1.15,2013-01-21 11:21:00,
2013-01-21 06:26:00,24.0,18.7,30.06,NNW,327,0.0,0.0,80,0.00,,,0.00,0,Wunderground v.1.15,2013-01-21 11:26:00,
2013-01-21 06:32:00,24.0,18.7,30.06,NNW,327,0.0,0.0,80,0.00,,,0.00,0,Wunderground v.1.15,2013-01-21 11:32:00,
2013-01-21 06:37:00,24.0,18.4,30.06,NNW,327,0.0,0.0,79,0.00,,,0.00,0,Wunderground v.1.15,2013-01-21 11:37:00,
2013-01-21 06:42:00,24.0,18.4,30.05,NNW,327,0.0,0.0,79,0.00,,,0.00,0,Wunderground v.1.15,2013-01-21 11:42:00,
2013-01-21 06:48:00,24.0,18.4,30.05,NNW,327,0.0,0.0,79,0.00,,,0.00,0,Wunderground v.1.15,2013-01-21 11:48:00,
2013-01-21 06:54:00,24.0,18.4,30.06,NNW,327,0.0,0.0,79,0.00,,,0.00,0,Wunderground v.1.15,2013-01-21 11:54:00,
2013-01-21 07:01:00,24.0,18.4,30.06,NNW,327,0.0,0.0,79,0.00,,,0.00,0,Wunderground v.1.15,2013-01-21 12:01:00,
2013-01-21 07:06:00,24.1,18.8,30.06,NNW,327,0.0,0.0,80,0.00,,,0.00,0,Wunderground v.1.15,2013-01-21 12:06:00,
2013-01-21 07:12:00,24.1,18.8,30.06,NNW,327,0.0,0.0,80,0.00,,,0.00,0,Wunderground v.1.15,2013-01-21 12:12:00,
2013-01-21 07:17:00,24.1,18.5,30.05,NNW,327,0.0,0.0,79,0.00,,,0.00,0,Wunderground v.1.15,2013-01-21 12:17:00,
2013-01-21 07:23:00,24.2,18.3,30.05,NNW,327,0.0,0.0,78,0.00,,,0.00,0,Wunderground v.1.15,2013-01-21 12:23:00,
2013-01-21 07:28:00,24.2,18.3,30.05,NNW,327,0.0,0.0,78,0.00,,,0.00,0,Wunderground v.1.15,2013-01-21 12:28:00,
2013-01-21 07:34:00,24.3,18.4,30.05,NNW,327,0.0,0.0,78,0.00,,,0.00,0,Wunderground v.1.15,2013-01-21 12:34:00,
2013-01-21 07:39:00,24.3,18.4,30.05,NNW,327,0.0,0.0,78,0.00,,,0.00,0,Wunderground v.1.15,2013-01-21 12:39:00,
2013-01-21 07:45:00,24.3,18.4,30.05,NNW,327,0.0,0.0,78,0.00,,,0.00,0,Wunderground v.1.15,2013-01-21 12:45:00,
2013-01-21 07:50:00,24.3,18.4,30.05,NNW,327,0.0,0.0,78,0.00,,,0.00,7,Wunderground v.1.15,2013-01-21 12:50:00,
2013-01-21 07:55:00,24.4,18.5,30.05,NNW,327,0.0,0.0,78,0.00,,,0.00,11,Wunderground v.1.15,2013-01-21 12:55:00,
2013-01-21 08:00:00,24.4,18.2,30.05,NNW,327,0.0,0.0,77,0.00,,,0.00,11,Wunderground v.1.15,2013-01-21 13:00:00,
2013-01-21 08:06:00,24.5,18.0,30.05,WSW,248,0.0,2.0,76,0.00,,,0.00,9,Wunderground v.1.15,2013-01-21 13:06:00,
2013-01-21 08:12:00,24.6,17.8,30.04,WSW,248,0.0,0.0,75,0.00,,,0.00,14,Wunderground v.1.15,2013-01-21 13:12:00,
2013-01-21 08:17:00,24.7,17.6,30.05,SW,223,0.0,4.0,74,0.00,,,0.00,16,Wunderground v.1.15,2013-01-21 13:17:00,
2013-01-21 08:23:00,24.8,17.7,30.05,SW,222,1.0,2.0,74,0.00,,,0.00,21,Wunderground v.1.15,2013-01-21 13:23:00,
2013-01-21 08:29:00,24.9,17.5,30.05,SW,227,1.0,4.0,73,0.00,,,0.00,19,Wunderground v.1.15,2013-01-21 13:29:00,
2013-01-21 08:34:00,25.0,17.9,30.04,SW,227,1.0,2.0,74,0.00,,,0.00,32,Wunderground v.1.15,2013-01-21 13:34:00,
2013-01-21 08:39:00,25.1,18.0,30.04,SW,223,1.0,4.0,74,0.00,,,0.00,46,Wunderground v.1.15,2013-01-21 13:39:00,
2013-01-21 08:45:00,25.2,18.4,30.04,WSW,237,1.0,1.0,75,0.00,,,0.00,51,Wunderground v.1.15,2013-01-21 13:45:00,
2013-01-21 08:50:00,25.3,18.5,30.04,SW,220,1.0,1.0,75,0.00,,,0.00,69,Wunderground v.1.15,2013-01-21 13:50:00,
2013-01-21 08:56:00,25.4,18.6,30.04,WNW,292,1.0,1.0,75,0.00,,,0.00,70,Wunderground v.1.15,2013-01-21 13:56:00,
2013-01-21 09:01:00,25.6,18.8,30.03,SW,221,0.0,2.0,75,0.00,,,0.00,74,Wunderground v.1.15,2013-01-21 14:01:00,
2013-01-21 09:06:00,25.7,18.2,30.03,SW,227,1.0,2.0,73,0.00,,,0.00,84,Wunderground v.1.15,2013-01-21 14:06:00,
2013-01-21 09:11:00,25.7,18.6,30.03,SW,222,1.0,1.0,74,0.00,,,0.00,83,Wunderground v.1.15,2013-01-21 14:11:00,
2013-01-21 09:17:00,25.9,18.4,30.03,SW,229,1.0,4.0,73,0.00,,,0.00,91,Wunderground v.1.15,2013-01-21 14:17:00,
2013-01-21 09:22:00,26.0,18.2,30.03,SSW,212,1.0,5.0,72,0.00,,,0.00,86,Wunderground v.1.15,2013-01-21 14:22:00,
2013-01-21 09:28:00,26.2,18.1,30.03,SSW,213,1.0,5.0,71,0.00,,,0.00,90,Wunderground v.1.15,2013-01-21 14:28:00,
2013-01-21 09:33:00,26.3,17.8,30.03,WSW,249,0.0,2.0,70,0.00,,,0.00,93,Wunderground v.1.15,2013-01-21 14:33:00,
2013-01-21 09:39:00,26.5,17.4,30.03,SW,236,1.0,5.0,68,0.00,,,0.00,77,Wunderground v.1.15,2013-01-21 14:39:00,
2013-01-21 09:44:00,26.5,17.0,30.03,WSW,248,1.0,5.0,67,0.00,,,0.00,70,Wunderground v.1.15,2013-01-21 14:44:00,
2013-01-21 09:50:00,26.5,17.0,30.03,WSW,237,1.0,1.0,67,0.00,,,0.00,60,Wunderground v.1.15,2013-01-21 14:50:00,
2013-01-21 09:56:00,26.6,17.1,30.03,WNW,294,1.0,4.0,67,0.00,,,0.00,70,Wunderground v.1.15,2013-01-21 14:56:00,
2013-01-21 10:02:00,26.6,17.1,30.03,WSW,246,1.0,1.0,67,0.00,,,0.00,60,Wunderground v.1.15,2013-01-21 15:02:00,
2013-01-21 10:08:00,26.7,17.2,30.02,West,270,0.0,1.0,67,0.00,,,0.00,65,Wunderground v.1.15,2013-01-21 15:08:00,
2013-01-21 10:13:00,26.7,16.5,30.02,WSW,239,1.0,4.0,65,0.00,,,0.00,70,Wunderground v.1.15,2013-01-21 15:13:00,
2013-01-21 10:19:00,26.7,16.9,30.02,West,271,2.0,5.0,66,0.00,,,0.00,74,Wunderground v.1.15,2013-01-21 15:19:00,
2013-01-21 10:25:00,26.7,17.2,30.02,WSW,252,2.0,7.0,67,0.00,,,0.00,81,Wunderground v.1.15,2013-01-21 15:25:00,
2013-01-21 10:30:00,26.8,17.3,30.01,WSW,258,2.0,2.0,67,0.00,,,0.00,88,Wunderground v.1.15,2013-01-21 15:30:00,
2013-01-21 10:35:00,26.9,17.4,30.01,West,280,1.0,2.0,67,0.00,,,0.00,90,Wunderground v.1.15,2013-01-21 15:35:00,
2013-01-21 10:40:00,26.9,17.4,30.01,West,280,0.0,0.0,67,0.00,,,0.00,91,Wunderground v.1.15,2013-01-21 15:40:00,
2013-01-21 10:46:00,27.1,17.6,30.01,SW,232,1.0,6.0,67,0.00,,,0.00,132,Wunderground v.1.15,2013-01-21 15:46:00,
2013-01-21 10:52:00,27.2,18.0,30.00,SW,226,1.0,2.0,68,0.00,,,0.00,102,Wunderground v.1.15,2013-01-21 15:52:00,
2013-01-21 10:57:00,27.2,17.7,30.00,WSW,244,1.0,5.0,67,0.00,,,0.00,98,Wunderground v.1.15,2013-01-21 15:57:00,
2013-01-21 11:02:00,27.2,17.7,30.00,SW,232,2.0,2.0,67,0.00,,,0.00,111,Wunderground v.1.15,2013-01-21 16:02:00,
2013-01-21 11:08:00,27.4,17.9,30.00,WSW,248,1.0,2.0,67,0.00,,,0.00,125,Wunderground v.1.15,2013-01-21 16:08:00,
2013-01-21 11:14:00,27.5,18.3,30.00,WSW,244,1.0,1.0,68,0.00,,,0.00,81,Wunderground v.1.15,2013-01-21 16:14:00,
2013-01-21 11:20:00,27.6,18.4,29.99,West,267,1.0,1.0,68,0.00,,,0.00,90,Wunderground v.1.15,2013-01-21 16:20:00,
2013-01-21 11:25:00,27.7,18.5,29.99,SW,232,1.0,4.0,68,0.00,,,0.00,118,Wunderground v.1.15,2013-01-21 16:25:00,
2013-01-21 11:31:00,27.8,18.6,29.99,West,266,1.0,1.0,68,0.00,,,0.00,121,Wunderground v.1.15,2013-01-21 16:31:00,
2013-01-21 11:37:00,27.9,19.0,29.98,West,276,1.0,2.0,69,0.00,,,0.00,123,Wunderground v.1.15,2013-01-21 16:37:00,
2013-01-21 11:43:00,27.9,19.0,29.97,WSW,238,2.0,2.0,69,0.00,,,0.00,111,Wunderground v.1.15,2013-01-21 16:43:00,
2013-01-21 11:48:00,27.8,18.9,29.97,WSW,244,2.0,5.0,69,0.00,,,0.00,109,Wunderground v.1.15,2013-01-21 16:48:00,
2013-01-21 11:54:00,27.6,18.8,29.96,West,271,2.0,3.0,69,0.00,,,0.00,111,Wunderground v.1.15,2013-01-21 16:54:00,
2013-01-21 11:59:00,27.5,19.0,29.95,WSW,255,2.0,4.0,70,0.00,,,0.00,132,Wunderground v.1.15,2013-01-21 16:59:00,
2013-01-21 12:05:00,27.4,18.9,29.95,SW,227,2.0,4.0,70,0.00,,,0.00,125,Wunderground v.1.15,2013-01-21 17:05:00,
2013-01-21 12:10:00,27.5,19.0,29.95,West,272,2.0,2.0,70,0.00,,,0.00,128,Wunderground v.1.15,2013-01-21 17:10:00,
2013-01-21 12:15:00,27.6,19.4,29.95,West,261,2.0,2.0,71,0.00,,,0.00,127,Wunderground v.1.15,2013-01-21 17:15:00,
2013-01-21 12:21:00,27.7,19.5,29.95,WSW,253,1.0,4.0,71,0.00,,,0.00,125,Wunderground v.1.15,2013-01-21 17:21:00,
2013-01-21 12:27:00,27.8,19.6,29.94,WSW,252,1.0,4.0,71,0.00,,,0.00,114,Wunderground v.1.15,2013-01-21 17:27:00,
2013-01-21 12:32:00,27.9,19.7,29.94,West,271,1.0,2.0,71,0.00,,,0.00,114,Wunderground v.1.15,2013-01-21 17:32:00,
2013-01-21 12:37:00,27.9,19.7,29.93,WSW,237,1.0,4.0,71,0.00,,,0.00,86,Wunderground v.1.15,2013-01-21 17:37:00,
2013-01-21 12:43:00,27.8,19.9,29.94,WNW,282,1.0,1.0,72,0.00,,,0.00,81,Wunderground v.1.15,2013-01-21 17:43:00,
2013-01-21 12:48:00,27.8,19.9,29.93,WNW,284,1.0,7.0,72,0.00,,,0.00,70,Wunderground v.1.15,2013-01-21 17:48:00,
2013-01-21 12:54:00,27.8,19.9,29.93,SW,227,1.0,2.0,72,0.00,,,0.00,54,Wunderground v.1.15,2013-01-21 17:54:00,
2013-01-21 13:00:00,27.7,19.8,29.93,WNW,284,1.0,4.0,72,0.00,,,0.00,60,Wunderground v.1.15,2013-01-21 18:00:00,
2013-01-21 13:06:00,27.8,19.9,29.93,West,260,1.0,4.0,72,0.00,,,0.00,69,Wunderground v.1.15,2013-01-21 18:06:00,
2013-01-21 13:12:00,27.8,19.9,29.93,WNW,298,1.0,5.0,72,0.00,,,0.00,74,Wunderground v.1.15,2013-01-21 18:12:00,
2013-01-21 13:18:00,27.7,19.8,29.93,WSW,248,3.0,5.0,72,0.00,,,0.00,69,Wunderground v.1.15,2013-01-21 18:18:00,
2013-01-21 13:23:00,27.6,19.8,29.93,SW,229,3.0,5.0,72,0.00,,,0.00,62,Wunderground v.1.15,2013-01-21 18:23:00,
2013-01-21 13:29:00,27.5,20.0,29.93,West,276,1.0,5.0,73,0.00,,,0.00,56,Wunderground v.1.15,2013-01-21 18:29:00,
2013-01-21 13:34:00,27.6,20.1,29.93,WNW,284,2.0,9.0,73,0.00,,,0.00,70,Wunderground v.1.15,2013-01-21 18:34:00,
2013-01-21 13:40:00,27.5,20.0,29.93,WSW,250,3.0,3.0,73,0.00,,,0.00,51,Wunderground v.1.15,2013-01-21 18:40:00,
2013-01-21 13:46:00,27.4,19.9,29.94,WNW,290,2.0,7.0,73,0.00,,,0.00,47,Wunderground v.1.15,2013-01-21 18:46:00,
2013-01-21 13:51:00,27.3,20.1,29.93,SSW,211,2.0,3.0,74,0.00,,,0.00,49,Wunderground v.1.15,2013-01-21 18:51:00,
2013-01-21 13:56:00,27.2,20.0,29.93,WNW,300,2.0,4.0,74,0.00,,,0.00,56,Wunderground v.1.15,2013-01-21 18:56:00,
2013-01-21 14:01:00,27.1,19.9,29.94,WNW,282,2.0,2.0,74,0.00,,,0.00,53,Wunderground v.1.15,2013-01-21 19:01:00,
2013-01-21 14:07:00,27.0,19.5,29.94,West,261,1.0,4.0,73,0.00,,,0.00,60,Wunderground v.1.15,2013-01-21 19:07:00,
2013-01-21 14:12:00,26.9,19.7,29.94,WNW,292,2.0,6.0,74,0.00,,,0.00,86,Wunderground v.1.15,2013-01-21 19:12:00,
2013-01-21 14:18:00,26.9,20.0,29.94,WNW,303,3.0,6.0,75,0.00,,,0.00,137,Wunderground v.1.15,2013-01-21 19:18:00,
2013-01-21 14:24:00,27.1,20.2,29.94,NW,304,2.0,4.0,75,0.00,,,0.00,178,Wunderground v.1.15,2013-01-21 19:24:00,
2013-01-21 14:29:00,27.3,20.4,29.94,WNW,284,2.0,4.0,75,0.00,,,0.00,155,Wunderground v.1.15,2013-01-21 19:29:00,
2013-01-21 14:35:00,27.6,20.1,29.94,WNW,289,1.0,4.0,73,0.00,,,0.00,144,Wunderground v.1.15,2013-01-21 19:35:00,
2013-01-21 14:41:00,27.9,19.4,29.94,SW,236,1.0,1.0,70,0.00,,,0.00,155,Wunderground v.1.15,2013-01-21 19:41:00,
2013-01-21 14:46:00,28.2,19.0,29.94,North,5,2.0,4.0,68,0.00,,,0.00,171,Wunderground v.1.15,2013-01-21 19:46:00,
2013-01-21 14:52:00,28.5,17.9,29.94,NW,306,3.0,9.0,64,0.00,,,0.00,137,Wunderground v.1.15,2013-01-21 19:52:00,
2013-01-21 14:58:00,28.7,18.1,29.94,West,261,3.0,9.0,64,0.00,,,0.00,137,Wunderground v.1.15,2013-01-21 19:58:00,
2013-01-21 15:04:00,28.8,17.8,29.94,WNW,289,3.0,6.0,63,0.00,,,0.00,134,Wunderground v.1.15,2013-01-21 20:04:00,
2013-01-21 15:09:00,28.8,17.8,29.94,WNW,290,4.0,6.0,63,0.00,,,0.00,97,Wunderground v.1.15,2013-01-21 20:09:00,
2013-01-21 15:15:00,28.7,18.1,29.94,NW,307,3.0,8.0,64,0.00,,,0.00,56,Wunderground v.1.15,2013-01-21 20:15:00,
2013-01-21 15:20:00,28.4,19.5,29.96,WNW,297,5.0,6.0,69,0.00,,,0.00,16,Wunderground v.1.15,2013-01-21 20:20:00,
2013-01-21 15:26:00,27.1,21.5,29.95,West,273,6.0,6.0,79,0.00,,,0.00,86,Wunderground v.1.15,2013-01-21 20:26:00,
2013-01-21 15:32:00,26.3,21.0,29.96,West,279,3.0,4.0,80,0.00,,,0.00,127,Wunderground v.1.15,2013-01-21 20:32:00,
2013-01-21 15:38:00,26.0,20.1,29.96,NW,307,4.0,9.0,78,0.00,,,0.00,93,Wunderground v.1.15,2013-01-21 20:38:00,
2013-01-21 15:43:00,25.9,18.7,29.95,West,279,5.0,10.0,74,0.00,,,0.00,62,Wunderground v.1.15,2013-01-21 20:43:00,
2013-01-21 15:49:00,25.8,18.3,29.96,West,280,5.0,10.0,73,0.00,,,0.00,60,Wunderground v.1.15,2013-01-21 20:49:00,
2013-01-21 15:55:00,25.9,18.7,29.96,WNW,288,4.0,5.0,74,0.00,,,0.00,137,Wunderground v.1.15,2013-01-21 20:55:00,
2013-01-21 16:00:00,26.1,18.3,29.96,West,278,5.0,5.0,72,0.00,,,0.00,70,Wunderground v.1.15,2013-01-21 21:00:00,
2013-01-21 16:06:00,26.3,18.8,29.97,WSW,245,4.0,8.0,73,0.00,,,0.00,9,Wunderground v.1.15,2013-01-21 21:06:00,
2013-01-21 16:12:00,25.1,20.7,29.98,WNW,286,6.0,7.0,83,0.00,,,0.00,155,Wunderground v.1.15,2013-01-21 21:12:00,
2013-01-21 16:17:00,24.4,20.5,29.98,West,278,5.0,7.0,85,0.00,,,0.00,163,Wunderground v.1.15,2013-01-21 21:17:00,
2013-01-21 16:23:00,24.1,20.2,29.98,NNW,327,3.0,4.0,85,0.00,,,0.00,53,Wunderground v.1.15,2013-01-21 21:23:00,
2013-01-21 16:28:00,23.9,19.8,29.98,WNW,296,4.0,5.0,84,0.00,,,0.00,35,Wunderground v.1.15,2013-01-21 21:28:00,
2013-01-21 16:34:00,23.7,19.0,29.98,West,260,3.0,6.0,82,0.00,,,0.00,26,Wunderground v.1.15,2013-01-21 21:34:00,
2013-01-21 16:39:00,23.6,18.9,29.99,WNW,283,2.0,8.0,82,0.00,,,0.00,40,Wunderground v.1.15,2013-01-21 21:39:00,
2013-01-21 16:45:00,23.8,18.8,29.99,WNW,297,4.0,5.0,81,0.00,,,0.00,81,Wunderground v.1.15,2013-01-21 21:45:00,
2013-01-21 16:50:00,23.9,19.2,29.99,NW,321,4.0,4.0,82,0.00,,,0.00,16,Wunderground v.1.15,2013-01-21 21:50:00,
2013-01-21 16:56:00,23.5,19.1,30.00,NW,311,3.0,8.0,83,0.00,,,0.00,14,Wunderground v.1.15,2013-01-21 21:56:00,
2013-01-21 17:02:00,23.0,18.0,29.99,West,265,2.0,3.0,81,0.00,,,0.00,14,Wunderground v.1.15,2013-01-21 22:02:00,
2013-01-21 17:07:00,22.7,17.7,29.99,NW,308,3.0,4.0,81,0.00,,,0.00,12,Wunderground v.1.15,2013-01-21 22:07:00,
2013-01-21 17:13:00,22.7,17.2,30.00,West,281,4.0,7.0,79,0.00,,,0.00,7,Wunderground v.1.15,2013-01-21 22:13:00,
2013-01-21 17:18:00,22.8,17.0,30.00,WNW,283,4.0,7.0,78,0.00,,,0.00,5,Wunderground v.1.15,2013-01-21 22:18:00,
2013-01-21 17:23:00,22.9,17.1,30.00,NW,318,3.0,7.0,78,0.00,,,0.00,0,Wunderground v.1.15,2013-01-21 22:23:00,
2013-01-21 17:28:00,22.9,16.8,30.00,West,277,3.0,7.0,77,0.00,,,0.00,0,Wunderground v.1.15,2013-01-21 22:28:00,
2013-01-21 17:34:00,22.9,16.8,30.00,NW,306,3.0,6.0,77,0.00,,,0.00,0,Wunderground v.1.15,2013-01-21 22:34:00,
2013-01-21 17:39:00,22.8,16.7,30.00,WNW,298,2.0,6.0,77,0.00,,,0.00,0,Wunderground v.1.15,2013-01-21 22:39:00,
2013-01-21 17:45:00,22.7,16.3,30.00,WNW,299,3.0,9.0,76,0.00,,,0.00,0,Wunderground v.1.15,2013-01-21 22:45:00,
2013-01-21 17:50:00,22.7,16.3,30.01,NW,306,5.0,5.0,76,0.00,,,0.00,0,Wunderground v.1.15,2013-01-21 22:50:00,
2013-01-21 17:56:00,22.6,15.9,30.00,West,272,4.0,8.0,75,0.00,,,0.00,0,Wunderground v.1.15,2013-01-21 22:56:00,
2013-01-21 18:01:00,22.6,15.9,30.00,WNW,302,5.0,7.0,75,0.00,,,0.00,0,Wunderground v.1.15,2013-01-21 23:01:00,
2013-01-21 18:07:00,22.5,15.8,30.01,NW,304,4.0,9.0,75,0.00,,,0.00,0,Wunderground v.1.15,2013-01-21 23:07:00,
2013-01-21 18:12:00,22.4,15.7,30.01,WNW,302,5.0,10.0,75,0.00,,,0.00,0,Wunderground v.1.15,2013-01-21 23:12:00,
2013-01-21 18:18:00,22.3,15.3,30.01,WNW,298,5.0,13.0,74,0.00,,,0.00,0,Wunderground v.1.15,2013-01-21 23:18:00,
2013-01-21 18:24:00,22.2,15.2,30.01,WNW,302,3.0,7.0,74,0.00,,,0.00,0,Wunderground v.1.15,2013-01-21 23:24:00,
2013-01-21 18:30:00,22.0,15.0,30.02,West,280,3.0,3.0,74,0.00,,,0.00,0,Wunderground v.1.15,2013-01-21 23:30:00,
2013-01-21 18:36:00,21.9,14.6,30.01,WNW,284,4.0,4.0,73,0.00,,,0.00,0,Wunderground v.1.15,2013-01-21 23:36:00,
2013-01-21 18:42:00,21.8,14.8,30.01,West,273,1.0,1.0,74,0.00,,,0.00,0,Wunderground v.1.15,2013-01-21 23:42:00,
2013-01-21 18:47:00,21.7,14.7,30.01,WNW,282,4.0,8.0,74,0.00,,,0.00,0,Wunderground v.1.15,2013-01-21 23:47:00,
2013-01-21 18:53:00,21.5,14.8,30.02,WNW,287,5.0,7.0,75,0.00,,,0.00,0,Wunderground v.1.15,2013-01-21 23:53:00,
2013-01-21 18:58:00,21.4,15.0,30.02,West,273,4.0,7.0,76,0.00,,,0.00,0,Wunderground v.1.15,2013-01-21 23:58:00,
2013-01-21 19:03:00,21.2,14.2,30.03,West,279,5.0,7.0,74,0.00,,,0.00,0,Wunderground v.1.15,2013-01-22 00:03:00,
2013-01-21 19:09:00,20.9,13.9,30.03,West,281,7.0,15.0,74,0.00,,,0.00,0,Wunderground v.1.15,2013-01-22 00:09:00,
2013-01-21 19:15:00,20.8,13.8,30.03,WNW,283,5.0,11.0,74,0.00,,,0.00,0,Wunderground v.1.15,2013-01-22 00:15:00,
2013-01-21 19:20:00,20.7,13.7,30.03,WNW,295,3.0,3.0,74,0.00,,,0.00,0,Wunderground v.1.15,2013-01-22 00:20:00,
2013-01-21 19:26:00,20.7,13.7,30.03,West,270,3.0,5.0,74,0.00,,,0.00,0,Wunderground v.1.15,2013-01-22 00:26:00,
2013-01-21 19:31:00,20.7,13.7,30.03,West,281,3.0,3.0,74,0.00,,,0.00,0,Wunderground v.1.15,2013-01-22 00:31:00,
2013-01-21 19:36:00,20.6,13.6,30.03,NNW,333,2.0,7.0,74,0.00,,,0.00,0,Wunderground v.1.15,2013-01-22 00:36:00,
2013-01-21 19:41:00,20.6,13.3,30.03,North,355,3.0,6.0,73,0.00,,,0.00,0,Wunderground v.1.15,2013-01-22 00:41:00,
2013-01-21 19:47:00,20.4,13.1,30.03,WNW,296,5.0,8.0,73,0.00,,,0.00,0,Wunderground v.1.15,2013-01-22 00:47:00,
2013-01-21 19:52:00,20.3,12.7,30.04,West,281,4.0,6.0,72,0.00,,,0.00,0,Wunderground v.1.15,2013-01-22 00:52:00,
2013-01-21 19:57:00,20.3,12.7,30.04,West,268,3.0,6.0,72,0.00,,,0.00,0,Wunderground v.1.15,2013-01-22 00:57:00,
2013-01-21 20:02:00,20.2,12.0,30.04,WNW,297,4.0,4.0,70,0.00,,,0.00,0,Wunderground v.1.15,2013-01-22 01:02:00,
2013-01-21 20:08:00,19.9,11.4,30.05,NNW,340,5.0,11.0,69,0.00,,,0.00,0,Wunderground v.1.15,2013-01-22 01:08:00,
2013-01-21 20:14:00,19.6,10.7,30.05,WNW,293,6.0,7.0,68,0.00,,,0.00,0,Wunderground v.1.15,2013-01-22 01:14:00,
2013-01-21 20:20:00,19.5,10.6,30.05,West,278,6.0,6.0,68,0.00,,,0.00,0,Wunderground v.1.15,2013-01-22 01:20:00,
2013-01-21 20:26:00,19.3,10.5,30.05,WNW,301,4.0,8.0,68,0.00,,,0.00,0,Wunderground v.1.15,2013-01-22 01:26:00,
2013-01-21 20:31:00,19.2,11.0,30.06,NW,321,5.0,8.0,70,0.00,,,0.00,0,Wunderground v.1.15,2013-01-22 01:31:00,
2013-01-21 20:36:00,18.9,11.4,30.05,WNW,300,7.0,11.0,72,0.00,,,0.00,0,Wunderground v.1.15,2013-01-22 01:36:00,
2013-01-21 20:42:00,18.3,11.4,30.05,WSW,244,6.0,8.0,74,0.00,,,0.00,0,Wunderground v.1.15,2013-01-22 01:42:00,
2013-01-21 20:47:00,18.0,11.1,30.06,West,275,6.0,11.0,74,0.00,,,0.00,0,Wunderground v.1.15,2013-01-22 01:47:00,
2013-01-21 20:53:00,17.9,10.4,30.06,WNW,290,7.0,8.0,72,0.00,,,0.00,0,Wunderground v.1.15,2013-01-22 01:53:00,
2013-01-21 20:59:00,17.6,8.8,30.05,NNW,337,6.0,12.0,68,0.00,,,0.00,0,Wunderground v.1.15,2013-01-22 01:59:00,
2013-01-21 21:04:00,17.5,7.7,30.06,WNW,292,6.0,6.0,65,0.00,,,0.00,0,Wunderground v.1.15,2013-01-22 02:04:00,
2013-01-21 21:10:00,17.3,6.8,30.06,WNW,284,5.0,5.0,63,0.00,,,0.00,0,Wunderground v.1.15,2013-01-22 02:10:00,
2013-01-21 21:15:00,17.1,6.3,30.06,West,275,6.0,8.0,62,0.00,,,0.00,0,Wunderground v.1.15,2013-01-22 02:15:00,
2013-01-21 21:22:00,17.0,5.9,30.06,West,279,6.0,7.0,61,0.00,,,0.00,0,Wunderground v.1.15,2013-01-22 02:22:00,
2013-01-21 21:28:00,16.8,5.7,30.06,NNW,329,5.0,8.0,61,0.00,,,0.00,0,Wunderground v.1.15,2013-01-22 02:28:00,
2013-01-21 21:33:00,16.6,5.5,30.07,WNW,290,3.0,4.0,61,0.00,,,0.00,0,Wunderground v.1.15,2013-01-22 02:33:00,
2013-01-21 21:38:00,16.5,5.4,30.07,WNW,299,3.0,10.0,61,0.00,,,0.00,0,Wunderground v.1.15,2013-01-22 02:38:00,
2013-01-21 21:44:00,16.4,5.3,30.07,NNW,331,5.0,10.0,61,0.00,,,0.00,0,Wunderground v.1.15,2013-01-22 02:44:00,
2013-01-21 21:49:00,16.3,4.8,30.07,NW,316,5.0,10.0,60,0.00,,,0.00,0,Wunderground v.1.15,2013-01-22 02:49:00,
2013-01-21 21:54:00,16.2,4.7,30.07,WNW,295,6.0,9.0,60,0.00,,,0.00,0,Wunderground v.1.15,2013-01-22 02:54:00,
2013-01-21 22:00:00,16.1,4.6,30.08,WNW,302,5.0,5.0,60,0.00,,,0.00,0,Wunderground v.1.15,2013-01-22 03:00:00,
2013-01-21 22:05:00,15.9,4.8,30.07,WSW,250,5.0,8.0,61,0.00,,,0.00,0,Wunderground v.1.15,2013-01-22 03:05:00,
2013-01-21 22:11:00,15.7,4.6,30.08,WNW,303,5.0,5.0,61,0.00,,,0.00,0,Wunderground v.1.15,2013-01-22 03:11:00,
2013-01-21 22:16:00,15.7,5.0,30.08,WNW,289,3.0,5.0,62,0.00,,,0.00,0,Wunderground v.1.15,2013-01-22 03:16:00,
2013-01-21 22:22:00,15.5,5.1,30.08,NW,324,2.0,5.0,63,0.00,,,0.00,0,Wunderground v.1.15,2013-01-22 03:22:00,
2013-01-21 22:27:00,15.4,5.0,30.08,WNW,292,4.0,5.0,63,0.00,,,0.00,0,Wunderground v.1.15,2013-01-22 03:27:00,
2013-01-21 22:32:00,15.4,5.0,30.08,NW,324,3.0,6.0,63,0.00,,,0.00,0,Wunderground v.1.15,2013-01-22 03:32:00,
2013-01-21 22:38:00,15.3,4.9,30.08,NW,309,2.0,6.0,63,0.00,,,0.00,0,Wunderground v.1.15,2013-01-22 03:38:00,
2013-01-21 22:43:00,15.3,4.9,30.08,WNW,300,3.0,7.0,63,0.00,,,0.00,0,Wunderground v.1.15,2013-01-22 03:43:00,
2013-01-21 22:49:00,15.2,5.2,30.08,West,271,3.0,7.0,64,0.00,,,0.00,0,Wunderground v.1.15,2013-01-22 03:49:00,
2013-01-21 22:55:00,15.2,5.2,30.08,West,272,3.0,7.0,64,0.00,,,0.00,0,Wunderground v.1.15,2013-01-22 03:55:00,
2013-01-21 23:00:00,15.2,5.5,30.08,West,276,3.0,4.0,65,0.00,,,0.00,0,Wunderground v.1.15,2013-01-22 04:00:00,
2013-01-21 23:06:00,15.1,5.4,30.08,WNW,301,3.0,6.0,65,0.00,,,0.00,0,Wunderground v.1.15,2013-01-22 04:06:00,
2013-01-21 23:11:00,15.1,5.4,30.08,NW,309,3.0,3.0,65,0.00,,,0.00,0,Wunderground v.1.15,2013-01-22 04:11:00,
2013-01-21 23:16:00,15.0,5.7,30.08,WNW,292,2.0,6.0,66,0.00,,,0.00,0,Wunderground v.1.15,2013-01-22 04:16:00,
2013-01-21 23:23:00,15.0,6.3,30.08,WNW,286,0.0,7.0,68,0.00,,,0.00,0,Wunderground v.1.15,2013-01-22 04:23:00,
2013-01-21 23:28:00,14.9,8.7,30.08,West,275,5.0,8.0,76,0.00,,,0.00,0,Wunderground v.1.15,2013-01-22 04:28:00,
2013-01-21 23:34:00,14.9,6.9,30.08,West,277,4.0,9.0,70,0.00,,,0.00,0,Wunderground v.1.15,2013-01-22 04:34:00,
2013-01-21 23:39:00,14.9,7.2,30.08,WSW,254,5.0,9.0,71,0.00,,,0.00,0,Wunderground v.1.15,2013-01-22 04:39:00,
2013-01-21 23:44:00,14.8,7.4,30.08,NW,321,5.0,9.0,72,0.00,,,0.00,0,Wunderground v.1.15,2013-01-22 04:44:00,
2013-01-21 23:50:00,14.7,7.3,30.08,WNW,295,5.0,5.0,72,0.00,,,0.00,0,Wunderground v.1.15,2013-01-22 04:50:00,
2013-01-21 23:55:00,14.6,7.2,30.08,WSW,250,3.0,5.0,72,0.00,,,0.00,0,Wunderground v.1.15,2013-01-22 04:55:00,